User: anonymous   Login
Location: Unspecified
(0.0000°N, 0.0000°E)
Time: 00:46:37
(UTC+00:00)
Language:

CRRES - Orbit

View from above orbital plane
View from above orbital plane
View from above satellite
View from above satellite

Ground track
Ground track

The orbit data is extracted from the following two-line orbital elements,

1 20712U 90065A   19047.26059817 -.00000455 +00000-0 +23747-3 0  9992
2 20712 018.1657 014.4394 7113487 314.8203 005.7843 02.46233066243377
Epoch (UTC): 16 February 2019 06:15:15
Eccentricity: 0.7113487
inclination: 18.1657°
perigee height: 308 km
apogee height: 33265 km
right ascension of ascending node: 14.4394°
argument of perigee: 314.8203°
revolutions per day: 2.46233066
mean anomaly at epoch: 5.7843°
orbit number at epoch: 24337

The dashed part of the orbit path shows where the satellite is in the earth's shadow,  

DLR